FW9568 Weather Reports


time (UTC)temp
F
wind
direction
speed
knots
gust
knots
rain 1hr
in
rain 24hr
in
rain mn
in
humidity
%
barometer
mb
20260906212703 90 131 0.9 3.5 0.00 0.00 0.00 34 1018.8
20260906211803 90 132 1.7 4.3 0.00 0.00 0.00 35 1018.8
20260906210903 90 128 0.9 4.3 0.00 0.00 0.00 36 1019.0
20260906210003 90 94 1.7 7.0 0.00 0.00 0.00 36 1019.1
20260906205403 90 96 0.9 7.0 0.00 0.00 0.00 38 1019.2
20260906204503 90 113 0.9 3.5 0.00 0.00 0.00 36 1019.3
20260906203603 90 130 1.7 4.3 0.00 0.00 0.00 36 1019.4
20260906202916 91 176 0.9 3.5 0.00 0.00 0.00 37 1019.5
20260906201803 91 91 0.9 4.3 0.00 0.00 0.00 36 1019.7
20260906200903 91 122 0.9 5.2 0.00 0.00 0.00 37 1019.7
20260906200003 91 131 0.9 6.1 0.00 0.00 0.00 36 1019.9
20260906195403 91 125 0.9 3.5 0.00 0.00 0.00 37 1019.8
20260906194503 91 112 0.9 3.5 0.00 0.00 0.00 36 1019.9
20260906193603 91 106 1.7 5.2 0.00 0.00 0.00 35 1020.1
20260906192703 91 132 0.9 3.5 0.00 0.00 0.00 38 1020.1
20260906191803 90 127 0.9 3.5 0.00 0.00 0.00 36 1020.1
20260906190903 90 114 0.9 3.5 0.00 0.00 0.00 38 1020.4
20260906190003 90 99 0.9 3.5 0.00 0.00 0.00 38 1020.3
20260906185403 90 96 0.9 3.5 0.00 0.00 0.00 37 1020.5
20260906184503 90 113 0.9 4.3 0.00 0.00 0.00 36 1020.6
20260906183603 89 98 0.9 3.5 0.00 0.00 0.00 36 1020.8
20260906182703 89 98 0.9 3.5 0.00 0.00 0.00 36 1021.0
20260906181803 90 254 0.0 1.7 0.00 0.00 0.00 36 1021.2
20260906180903 90 126 0.0 2.6 0.00 0.00 0.00 36 1021.4
20260906180003 89 123 0.9 2.6 0.00 0.00 0.00 36 1021.6
20260906175617 89 117 0.9 4.3 0.00 0.00 0.00 38 1021.7
20260906174503 88 158 0.9 1.7 0.00 0.00 0.00 36 1021.9
20260906173603 88 154 0.9 1.7 0.00 0.00 0.00 37 1021.9
20260906172703 87 95 0.0 1.7 0.00 0.00 0.00 39 1022.0
20260906172019 86 210 0.0 0.9 0.00 0.00 0.00 40 1022.1
20260906170903 86 245 0.0 1.7 0.00 0.00 0.00 39 1022.1
20260906170217 87 173 0.0 1.7 0.00 0.00 0.00 40 1022.2
20260906165403 87 122 0.0 2.6 0.00 0.00 0.00 40 1022.3
20260906164503 87 107 0.9 3.5 0.00 0.00 0.00 36 1022.2
20260906163603 87 123 0.0 2.6 0.00 0.00 0.00 40 1022.3
20260906162703 86 169 0.0 1.7 0.00 0.00 0.00 41 1022.4
20260906161803 86 106 0.9 3.5 0.00 0.00 0.00 37 1022.2
20260906161117 86 113 0.0 5.2 0.00 0.00 0.00 40 1022.2
20260906160003 86 104 0.0 2.6 0.00 0.00 0.00 37 1022.3
20260906155403 86 101 0.0 1.7 0.00 0.00 0.00 39 1022.3
20260906154503 85 107 0.0 1.7 0.00 0.00 0.00 41 1022.3
20260906153603 84 106 0.0 1.7 0.00 0.00 0.00 42 1022.2
20260906152703 83 100 0.0 2.6 0.00 0.00 0.00 42 1022.2
20260906151803 82 0 0.0 0.0 0.00 0.00 0.00 45 1022.2
20260906150903 81 0 0.0 0.0 0.00 0.00 0.00 45 1022.1
20260906150003 78 0 0.0 0.0 0.00 0.00 0.00 48 1022.2
20260906145616 77 0 0.0 0.0 0.00 0.00 0.00 50 1022.1
20260906144503 74 0 0.0 0.0 0.00 0.00 0.00 51 1022.0
20260906143603 72 0 0.0 0.0 0.00 0.00 0.00 56 1022.1
20260906142703 70 0 0.0 0.0 0.00 0.00 0.00 55 1022.0
20260906142017 69 305 0.0 1.7 0.00 0.00 0.00 59 1022.0
20260906140903 67 339 0.9 1.7 0.00 0.00 0.00 60 1021.8
20260906140003 66 300 0.9 2.6 0.00 0.00 0.00 61 1021.8
20260906135403 66 294 0.9 2.6 0.00 0.00 0.00 62 1021.7
20260906134507 65 290 0.9 2.6 0.00 0.00 0.00 65 1021.8
20260906133603 64 291 0.9 2.6 0.00 0.00 0.00 68 1021.7
20260906132703 63 296 0.9 2.6 0.00 0.00 0.00 71 1021.6
20260906132017 63 299 0.9 2.6 0.00 0.00 0.00 73 1021.4
20260906130903 63 300 0.9 1.7 0.00 0.00 0.00 74 1021.5
20260906130003 63 300 0.0 1.7 0.00 0.00 0.00 74 1021.4
20260906125403 63 300 0.0 1.7 0.00 0.00 0.00 74 1021.4
20260906124503 63 292 1.7 3.5 0.00 0.00 0.00 73 1021.4
20260906123603 63 286 0.9 2.6 0.00 0.00 0.00 73 1021.5
20260906122917 64 296 0.9 2.6 0.00 0.00 0.00 72 1021.5
20260906121803 64 303 0.9 2.6 0.00 0.00 0.00 72 1021.4
20260906120903 64 317 0.0 2.6 0.00 0.00 0.00 72 1021.3
20260906120003 64 0 0.0 0.0 0.00 0.00 0.00 72 1021.3
20260906115403 64 0 0.0 0.0 0.00 0.00 0.00 72 1021.2
20260906114503 64 0 0.0 0.0 0.00 0.00 0.00 72 1021.1
20260906113818 64 0 0.0 0.0 0.00 0.00 0.00 73 1021.1
20260906112703 64 0 0.0 0.0 0.00 0.00 0.00 72 1021.2
20260906112016 64 0 0.0 0.0 0.00 0.00 0.00 72 1021.2
20260906110903 64 0 0.0 0.0 0.00 0.00 0.00 72 1021.0
20260906110003 64 0 0.0 0.0 0.00 0.00 0.00 72 1021.0
20260906105403 65 0 0.0 0.0 0.00 0.00 0.00 72 1020.9
20260906104503 65 0 0.0 0.0 0.00 0.00 0.00 72 1021.0
20260906103603 65 317 0.0 1.7 0.00 0.00 0.00 71 1021.0
20260906102703 65 317 0.0 0.9 0.00 0.00 0.00 71 1021.0
20260906102016 65 317 0.0 1.7 0.00 0.00 0.00 70 1020.9
20260906100903 66 317 0.9 1.7 0.00 0.00 0.00 70 1020.9
20260906100219 66 0 0.0 0.0 0.00 0.00 0.00 70 1020.9
20260906095618 65 0 0.0 0.0 0.00 0.00 0.00 70 1021.1
20260906094503 66 0 0.0 0.0 0.00 0.00 0.00 69 1021.2
20260906093603 66 0 0.0 0.0 0.00 0.00 0.00 69 1021.3
20260906092703 66 61 0.0 0.9 0.00 0.00 0.00 69 1021.3
20260906091803 66 61 0.0 1.7 0.00 0.00 0.00 69 1021.3
20260906090903 66 63 0.0 0.9 0.00 0.00 0.00 69 1021.1
20260906090003 66 0 0.0 0.9 0.00 0.00 0.00 69 1021.2
20260906085403 66 311 0.0 0.9 0.00 0.00 0.00 68 1021.1
20260906084503 67 311 0.0 2.6 0.00 0.00 0.00 68 1021.1
20260906083603 67 311 0.9 2.6 0.00 0.00 0.00 68 1021.0
20260906082703 67 311 0.9 1.7 0.00 0.00 0.00 67 1021.1
20260906081803 67 311 0.0 1.7 0.00 0.00 0.00 67 1021.0
20260906080903 68 311 0.9 2.6 0.00 0.00 0.00 66 1020.9
20260906080003 68 297 0.9 2.6 0.00 0.00 0.00 66 1020.9
20260906075617 68 289 0.9 2.6 0.00 0.00 0.00 66 1020.9
20260906074503 68 279 0.9 3.5 0.00 0.00 0.00 66 1021.1
20260906073603 68 289 0.9 1.7 0.00 0.00 0.00 66 1021.1
20260906072916 68 289 0.9 3.5 0.00 0.00 0.00 67 1021.0
20260906071803 68 289 1.7 3.5 0.00 0.00 0.00 67 1021.1
20260906070903 67 295 1.7 3.5 0.00 0.00 0.00 66 1021.2
20260906070003 67 291 1.7 4.3 0.00 0.00 0.00 66 1021.1
20260906065617 67 289 0.9 3.5 0.00 0.00 0.00 66 1021.1
20260906064716 67 0 0.0 0.0 0.00 0.00 0.00 66 1021.1
20260906063603 67 58 0.0 0.9 0.00 0.00 0.00 66 1021.2
20260906062703 68 59 0.0 1.7 0.00 0.00 0.00 65 1021.2
20260906061803 68 75 0.0 1.7 0.00 0.00 0.00 64 1021.2
20260906060903 68 76 0.9 2.6 0.00 0.00 0.00 64 1021.2
20260906060217 69 75 0.9 2.6 0.00 0.00 0.00 63 1021.1
20260906055403 69 86 0.9 1.7 0.00 0.00 0.00 63 1021.1
20260906054503 70 0 0.0 0.0 0.00 0.00 0.00 62 1021.1
20260906053603 70 67 0.9 2.6 0.00 0.00 0.00 62 1021.1
20260906052703 70 66 0.9 2.6 0.00 0.00 0.00 62 1021.1
20260906051803 71 77 0.9 2.6 0.00 0.00 0.00 61 1020.9
20260906050903 71 56 0.0 2.6 0.00 0.00 0.00 60 1021.1
20260906050003 72 81 0.9 1.7 0.00 0.00 0.00 60 1021.0
20260906045403 72 103 0.9 1.7 0.00 0.00 0.00 60 1021.0
20260906044503 72 103 0.0 1.7 0.00 0.00 0.00 60 1021.1
20260906043603 72 0 0.0 0.0 0.00 0.00 0.00 59 1021.2
20260906042703 73 0 0.0 0.0 0.00 0.00 0.00 58 1021.2
20260906041803 73 103 0.0 0.9 0.00 0.00 0.00 58 1021.2
20260906040903 74 0 0.0 0.0 0.00 0.00 0.00 57 1021.2
20260906040003 74 103 0.0 0.9 0.00 0.00 0.00 56 1020.9
20260906035403 74 103 0.0 0.9 0.00 0.00 0.00 56 1021.2
20260906034503 75 117 0.0 1.7 0.00 0.00 0.00 55 1021.2
20260906033603 75 70 0.9 2.6 0.00 0.00 0.00 55 1021.1
20260906032703 75 74 0.9 3.5 0.00 0.00 0.00 55 1021.3
20260906031803 76 76 0.0 1.7 0.00 0.00 0.00 55 1021.1
20260906030903 76 76 0.0 1.7 0.00 0.00 0.00 54 1020.8
20260906030216 76 89 0.0 1.7 0.00 0.00 0.00 53 1020.5
20260906025616 77 164 0.9 2.6 0.00 0.00 0.00 53 1020.5
20260906024719 77 127 0.9 2.6 0.00 0.00 0.00 52 1020.1
20260906023818 78 83 0.9 3.5 0.00 0.00 0.00 52 1020.1
20260906022703 79 86 0.9 2.6 0.00 0.00 0.00 50 1019.9
20260906021803 80 56 0.0 2.6 0.00 0.00 0.00 49 1019.9
20260906021116 81 61 0.9 3.5 0.00 0.00 0.00 48 1019.7
20260906020003 82 20 1.7 7.8 0.00 0.00 0.00 42 1019.7
20260906015403 82 327 1.7 7.8 0.00 0.00 0.00 34 1019.5
20260906014503 82 317 0.9 3.5 0.00 0.00 0.00 33 1019.1
20260906013603 82 297 1.7 4.3 0.00 0.00 0.00 33 1019.0
20260906012703 83 295 1.7 5.2 0.00 0.00 0.00 32 1019.0
20260906011803 84 297 1.7 5.2 0.00 0.00 0.00 31 1018.8
20260906010903 84 298 1.7 3.5 0.00 0.00 0.00 32 1018.9
20260906010003 85 298 1.7 4.3 0.00 0.00 0.00 31 1019.1
20260906005403 85 294 1.7 5.2 0.00 0.00 0.00 31 1019.1
20260906004503 85 293 1.7 5.2 0.00 0.00 0.00 31 1019.2
20260906003603 86 295 2.6 7.0 0.00 0.00 0.00 30 1019.2
20260906002703 86 296 1.7 3.5 0.00 0.00 0.00 30 1019.3
20260906001803 86 292 0.9 3.5 0.00 0.00 0.00 30 1019.2
20260906000903 86 280 0.9 3.5 0.00 0.00 0.00 31 1019.1
20260906000003 86 297 0.9 2.6 0.00 0.00 0.00 32 1019.1
20260905235403 85 301 0.9 3.5 0.00 0.00 0.00 32 1019.1
20260905234503 85 292 0.9 2.6 0.00 0.00 0.00 33 1019.0
20260905233603 84 298 0.9 2.6 0.00 0.00 0.00 32 1018.9
20260905232703 85 297 0.9 1.7 0.00 0.00 0.00 31 1019.0
20260905231803 85 297 0.9 3.5 0.00 0.00 0.00 31 1018.9
20260905231119 85 301 1.7 4.3 0.00 0.00 0.00 31 1019.1
20260905230003 85 296 1.7 7.8 0.00 0.00 0.00 30 1019.1
20260905225403 85 294 2.6 7.8 0.00 0.00 0.00 30 1019.1
20260905224717 84 294 2.6 7.0 0.00 0.00 0.00 30 1019.1
20260905223603 84 298 1.7 7.0 0.00 0.00 0.00 32 1019.3
20260905222703 84 294 1.7 6.1 0.00 0.00 0.00 36 1019.2
20260905221803 84 296 2.6 7.8 0.00 0.00 0.00 31 1019.3
20260905221119 84 300 1.7 7.8 0.00 0.00 0.00 32 1019.3
20260905220003 84 297 2.6 7.0 0.00 0.00 0.00 34 1019.3
20260905215403 85 291 2.6 7.0 0.00 0.00 0.00 35 1019.4
20260905214503 86 291 4.3 9.6 0.00 0.00 0.00 32 1019.4
20260905213603 85 291 1.7 9.6 0.00 0.00 0.00 31 1019.4